Regional Weather Roundup
Issued by NWS Boston, MA

Current Version | Previous Version | Text Only | Print | Product List | Glossary Off
Versions: 1 2 3 4 5 6 7 8 9 10 11 12 13 14 15 16 17 18 19 20 21 22 23 24 25 26 27 28
000 ASUS41 KBOX 231910 RWRBOX REGIONAL WEATHER ROUNDUP NATIONAL WEATHER SERVICE BOSTON/NORTON MA 300 PM EDT SAT JUN 23 2018 NOTE: "FAIR" INDICATES FEW OR NO CLOUDS BELOW 12,000 FEET WITH NO SIGNIFICANT WEATHER AND/OR OBSTRUCTIONS TO VISIBILITY. MAZALL-232000- EASTERN MASSACHUSETTS CITY SKY/WX TMP DP RH WIND PRES REMARKS BOSTON DRIZZLE 60 55 83 E13 29.90 BEVERLY CLOUDY 63 57 81 NE8 29.89F LAWRENCE CLOUDY 65 54 67 NE10 29.92F BEDFORD LGT RAIN 62 58 86 NE8 29.88F BLUE HILL N/A 57 55 93 NE12G21 29.87F NORWOOD CLOUDY 62 57 83 NE13 29.87F MARSHFIELD DRIZZLE 63 57 82 NE10 29.88F PLYMOUTH CLOUDY 62 59 90 NE8 29.87F TAUNTON CLOUDY 63 58 83 VRB7 29.86F NEW BEDFORD CLOUDY 63 62 97 NE10 29.85F FOG $$ MAZALL-232000- CAPE COD AND THE ISLANDS CITY SKY/WX TMP DP RH WIND PRES REMARKS FALMOUTH CLOUDY 63 63 100 NE12 29.86F FOG HYANNIS CLOUDY 65 63 93 NE8 29.84F CHATHAM LGT RAIN 60 59 96 NE10 29.87F FOG PROVINCETOWN CLOUDY 61 58 90 E14 29.88F NANTUCKET LGT RAIN 60 60 100 E8 29.84F FOG MARTHAS VNYRD CLOUDY 63 63 100 NE13 29.83F FOG $$ MAZALL-232000- CENTRAL AND WESTERN MASSACHUSETTS CITY SKY/WX TMP DP RH WIND PRES REMARKS WORCESTER CLOUDY 57 53 86 NE8 29.89F FOG FITCHBURG LGT RAIN 60 55 83 VRB7 29.91F ORANGE CLOUDY 60 52 74 E7 29.90F SPRINGFIELD CLOUDY 63 55 75 NE10 29.86F WESTFIELD CLOUDY 63 55 75 N8 29.87F NORTH ADAMS CLOUDY 59 49 69 E9 29.88S PITTSFIELD CLOUDY 58 50 75 NE6 29.87S $$ RIZALL-232000- RHODE ISLAND CITY SKY/WX TMP DP RH WIND PRES REMARKS PROVIDENCE CLOUDY 65 59 81 NE13 29.86F NEWPORT FOG 63 63 100 NE8 29.85F VSB 1 BLOCK ISLAND CLOUDY 63 63 100 NE12 29.84F FOG SMITHFIELD LGT RAIN 62 58 86 NE7 29.87F WESTERLY CLOUDY 67 65 93 NE9 29.85F $$ CTZALL-232000- CONNECTICUT CITY SKY/WX TMP DP RH WIND PRES REMARKS BRADLEY INTL CLOUDY 65 56 72 NE8 29.87F HARTFORD CLOUDY 64 58 80 N8 29.85F BRIDGEPORT CLOUDY 65 59 81 NE8 29.84F DANBURY CLOUDY 62 58 86 E6 29.87F GROTON CLOUDY 66 62 87 NE9 29.83F NEW HAVEN CLOUDY 63 61 93 N7 29.85S FOG CHESTER CLOUDY 64 63 94 E6 29.85F FOG MERIDEN CLOUDY 63 57 81 N6 29.85F WILLIMANTIC CLOUDY 65 59 81 NE7 29.86F $$ MEZ002-015-021-024-NHZ003-005-008-011-012-014-VTZ005-008-232000- NORTHERN NEW ENGLAND CITY SKY/WX TMP DP RH WIND PRES REMARKS PORTLAND ME LGT RAIN 60 56 86 VRB5 29.96F BANGOR ME CLOUDY 68 44 42 S8 29.95F CONCORD NH CLOUDY 57 51 80 NE9 29.93F MANCHESTER NH CLOUDY 62 56 80 N7 29.90F NASHUA NH LGT RAIN 61 52 72 VRB7 29.92F PORTSMOUTH NH CLOUDY 60 52 77 N6 29.92F JAFFREY NH CLOUDY 59 52 77 VRB6 29.91F KEENE NH LGT RAIN 61 54 77 VRB3 29.90F BURLINGTON VT CLOUDY 70 52 52 S10 29.86F MT. WASHINGTON PTSUNNY 45 18 33 S16 N/A $$ NYZ052-076-232000- EASTERN NEW YORK CITY SKY/WX TMP DP RH WIND PRES REMARKS ALBANY CLOUDY 59 54 83 N5 29.89S NEW YORK CITY CLOUDY 64 59 83 NE13 29.84F $$ ANZALL-232000- MARINE OBSERVATIONS STATION/POSITION TIME TEMP WIND PRES VSBY WAVE AIR SEA DIR/SP/G HT/PER (UTC) (F) (DEG/KT/KT) (MB) (MI) (FT/S) BOSTON BUOY 1850 61 62 40/ 12/ 14 1012.1F 2/ 3 BUZZARDS BAY 1800 61 60/ 17/ 18 1011.5F NANTUCKET SOUND 1850 62 65 70/ 16/ 19 1010.7F 2/ 3 MASS BAY-STELLWA 1804 59 60 1011.9F 2/ 5 ISLE OF SHOALS 1900 59 60/ 12/ 13 1012.6F S OF BLOCK IS 1843 62 N/A 4/ 6 $$ ......................KEY......................... SKY/WX - SKY CONDITION/PRESENT WEATHER TMP - TEMPERATURE IN FAHRENHEIT DWPT - DEWPOINT IN FAHRENHEIT RH - RELATIVE HUMIDITY IN PERCENT WIND - DIRECTION AND SPEED IN MPH PRES - MEAN SEA LEVEL PRESSURE IN INCHES OF HG WCI - WIND CHILL INDEX VSB - VISIBILITY IN MILES HX - HEAT INDEX TC - TEMPERATURE IN CELSIUS VRB - VARIABLE WIND DIRECTION N/A - NOT AVAILABLE

USA.gov is the U.S. government's official web portal to all federal, state and local government web resources and services.